Stations météo

réclame
Mon MeteoGroup
Cap Cepet, France (7661): Température de l'air & dewpoint: 08.08.2018 23:00:00 - 14.08.2018 23:00:00 (CEST)Cap Cepet, France (7661): Vitesse du vent & gusts: 08.08.2018 23:00:00 - 14.08.2018 23:00:00 (CEST)Cap Cepet, France (7661): Direction du vent: 08.08.2018 23:00:00 - 14.08.2018 23:00:00 (CEST)Cap Cepet, France (7661): reduced air pressure: 08.08.2018 23:00:00 - 14.08.2018 23:00:00 (CEST)Cap Cepet, France (7661): visibility: 08.08.2018 23:00:00 - 14.08.2018 23:00:00 (CEST)Cap Cepet, France (7661): Quantités de précipitations: 08.08.2018 23:00:00 - 14.08.2018 23:00:00 (CEST)
Date & Time tt [°C] td [°C] ff [km/h] ff [knt] fx [km/h] fx [knt] dd ppp [hPa] vv [km] rr [mm]
14.08.2018 23:00:00 - - 23 13 34 19 ENE - - -
14.08.2018 22:00:00 - - 15 8 31 17 NNE - - -
14.08.2018 21:00:00 - - 15 8 29 16 W - - -
14.08.2018 20:00:00 - - 23 12 38 21 W - 30 -
14.08.2018 19:00:00 - - 26 14 49 27 W - - -
14.08.2018 18:00:00 - - 34 18 54 29 W - - -
14.08.2018 17:00:00 - - 31 17 58 31 W - - -
14.08.2018 16:00:00 - - 39 21 65 35 W - - -
14.08.2018 15:00:00 - - 42 23 64 34 W - - -
14.08.2018 14:00:00 - - 28 15 57 31 WNW - - -
14.08.2018 13:00:00 - - 34 18 54 29 W - - -
14.08.2018 12:00:00 - - 34 19 59 32 W - - -
14.08.2018 11:00:00 - - 36 20 59 32 W - 25 -
14.08.2018 10:00:00 - - 34 19 54 29 W - - -
14.08.2018 09:00:00 - - 30 16 45 24 W - - -
14.08.2018 08:00:00 - - 30 16 53 28 W - 20 -
14.08.2018 07:00:00 - - 26 14 41 22 WNW - - -
14.08.2018 06:00:00 - - 21 12 37 20 WNW - - -
14.08.2018 05:00:00 - - 21 11 40 21 W - 20 -
14.08.2018 04:00:00 - - 24 13 37 20 W - - -
14.08.2018 03:00:00 - - 21 11 37 20 WNW - - -
14.08.2018 02:00:00 - - 24 13 37 20 WNW - - -
14.08.2018 01:00:00 - - 20 11 29 16 W - - -
14.08.2018 00:00:00 - - 19 10 35 19 W - - -
13.08.2018 23:00:00 - - 26 14 36 19 W - - -
13.08.2018 22:00:00 - - 20 11 28 15 W - - -
13.08.2018 21:00:00 - - 16 9 22 12 W - - -
13.08.2018 20:00:00 - - 3 1 7 4 SSW - 20 -
13.08.2018 19:00:00 - - 3 2 12 7 SE - - -
13.08.2018 18:00:00 - - 7 4 14 8 ENE - - -
13.08.2018 17:00:00 - - 7 4 14 8 ENE - 20 -
13.08.2018 16:00:00 - - 7 4 19 10 SE - - -
13.08.2018 15:00:00 - - 9 5 22 12 SE - - -
13.08.2018 14:00:00 - - 14 7 23 12 SE - - -
13.08.2018 13:00:00 - - 14 8 36 19 ESE - - -
13.08.2018 12:00:00 - - 21 11 36 20 NE - - -
13.08.2018 11:00:00 - - 24 13 44 24 NE - 10 -
13.08.2018 10:00:00 - - 32 17 46 25 NE - - -
13.08.2018 09:00:00 - - 29 16 43 23 NE - - -
13.08.2018 08:00:00 18,1 18,1 16 8 80 43 NNW 1015,1 - -
13.08.2018 07:00:00 21,6 21,4 8 5 13 7 ENE 1013,6 - 2,0
13.08.2018 06:00:00 22,9 20,4 5 3 20 11 SE 1013,4 - 0,0
13.08.2018 05:00:00 21,5 20,7 18 10 26 14 ENE 1012,3 - 0,0
13.08.2018 04:00:00 22,3 20,2 15 8 20 11 ENE 1013,7 - 0,0
13.08.2018 03:00:00 23,4 20,9 2 1 7 4 ENE 1014,0 - 0,0
13.08.2018 02:00:00 23,4 21,7 2 1 10 5 NE 1014,2 - 0,0
13.08.2018 01:00:00 23,3 22,1 3 2 14 7 SW 1014,6 - 0,0
13.08.2018 00:00:00 23,3 22,6 8 5 18 10 WNW 1014,7 - 0,0
12.08.2018 23:00:00 23,8 23,5 14 7 21 12 W 1015,5 - 0,0
12.08.2018 22:00:00 24,0 23,5 16 9 26 14 W 1016,0 - 0,0
12.08.2018 21:00:00 24,0 23,0 14 7 19 10 W 1015,1 - 0,0
12.08.2018 20:00:00 25,4 22,3 7 4 18 10 SW 1014,5 25 0,0
12.08.2018 19:00:00 28,3 18,1 8 4 28 15 WSW 1014,7 - 0,0
12.08.2018 18:00:00 28,9 11,9 11 6 27 15 SW 1015,2 - 0,0
12.08.2018 17:00:00 28,0 20,3 12 7 26 14 SSW 1015,7 - 0,0
12.08.2018 16:00:00 28,5 18,9 9 5 24 13 SSW 1016,2 - 0,0
12.08.2018 15:00:00 27,5 18,5 15 8 24 13 SSW 1017,0 - 0,0
12.08.2018 14:00:00 27,6 18,3 10 6 22 12 S 1017,2 25 0,0
12.08.2018 13:00:00 27,6 17,7 9 5 20 11 S 1017,6 - 0,0
12.08.2018 12:00:00 27,5 17,9 12 6 19 10 SSE 1017,7 - 0,0
12.08.2018 11:00:00 27,0 17,2 10 5 20 11 SE 1017,6 30 0,0
12.08.2018 10:00:00 25,7 12,5 14 8 22 12 ENE 1017,3 - 0,0
12.08.2018 09:00:00 22,9 10,3 18 10 23 12 NE 1017,3 - 0,0
12.08.2018 08:00:00 22,0 10,2 13 7 20 11 ENE 1017,3 - 0,0
12.08.2018 07:00:00 21,9 8,7 10 5 14 8 ENE 1016,8 - 0,0
12.08.2018 06:00:00 22,4 8,9 6 4 10 5 NE 1016,5 - 0,0
12.08.2018 05:00:00 21,6 11,9 5 3 27 15 NNE 1016,4 10 0,0
12.08.2018 04:00:00 22,5 11,9 9 5 34 19 WNW 1016,7 - 0,0
12.08.2018 03:00:00 22,2 14,1 21 11 40 21 WNW 1016,6 - 0,0
12.08.2018 02:00:00 22,4 19,0 22 12 41 22 WNW 1016,9 15 0,0
12.08.2018 01:00:00 23,0 20,0 27 14 49 26 W 1017,0 - 0,0
12.08.2018 00:00:00 23,2 20,2 31 17 50 27 W 1017,2 - 0,0
11.08.2018 23:00:00 23,4 20,1 31 17 50 27 W 1017,2 - 0,0
11.08.2018 22:00:00 24,1 19,2 26 14 49 27 W 1016,9 - 0,0
11.08.2018 21:00:00 25,9 10,9 31 17 48 26 W 1015,9 - 0,0
11.08.2018 20:00:00 26,6 13,3 27 14 47 25 W 1015,8 25 0,0
11.08.2018 19:00:00 27,2 15,6 32 17 52 28 W 1015,9 - 0,0
11.08.2018 18:00:00 27,9 15,2 36 19 55 30 W 1016,1 - 0,0
11.08.2018 17:00:00 28,7 14,5 34 19 60 32 W 1016,4 25 0,0
11.08.2018 16:00:00 28,5 12,4 38 21 64 34 W 1017,0 - 0,0
11.08.2018 15:00:00 27,8 13,0 41 22 59 32 W 1017,8 - 0,0
11.08.2018 14:00:00 27,7 10,4 35 19 58 31 W 1018,3 - 0,0
11.08.2018 13:00:00 28,0 11,1 35 19 56 30 W 1018,5 - 0,0
11.08.2018 12:00:00 28,2 8,0 32 18 50 27 W 1018,9 - 0,0
11.08.2018 11:00:00 27,1 11,9 19 11 37 20 W 1019,3 - 0,0
11.08.2018 10:00:00 26,1 9,9 22 12 43 23 W 1019,1 - 0,0
11.08.2018 09:00:00 24,7 10,6 26 14 44 24 WNW 1019,1 - 0,0
11.08.2018 08:00:00 23,6 10,6 26 14 44 24 WNW 1019,1 30 0,0
11.08.2018 07:00:00 23,3 11,4 31 17 44 24 W 1019,0 - 0,0
11.08.2018 06:00:00 22,6 11,6 24 13 37 20 W 1019,0 - 0,0
11.08.2018 05:00:00 23,0 10,8 26 14 40 22 W 1019,3 25 0,0
11.08.2018 04:00:00 23,1 10,8 31 17 46 25 W 1019,7 - 0,0
11.08.2018 03:00:00 23,4 12,7 31 17 49 26 W 1019,9 - 0,0
11.08.2018 02:00:00 23,8 11,8 30 16 43 23 W 1020,2 20 0,0
11.08.2018 01:00:00 24,5 11,1 28 15 45 24 W 1020,5 - 0,0
11.08.2018 00:00:00 24,7 11,3 25 14 37 20 W 1020,5 - 0,0
10.08.2018 23:00:00 25,1 14,2 27 15 41 22 W 1020,1 - 0,0
10.08.2018 22:00:00 25,9 11,6 26 14 42 23 W 1019,9 - 0,0
10.08.2018 21:00:00 26,3 15,0 28 15 46 25 WNW 1019,3 - 0,0
10.08.2018 20:00:00 27,5 14,2 32 17 54 29 W 1019,0 - 0,0
10.08.2018 19:00:00 28,3 13,0 36 19 60 32 W 1018,8 - 0,0
10.08.2018 18:00:00 29,2 11,7 33 18 55 30 W 1019,1 - 0,0
10.08.2018 17:00:00 30,1 13,4 31 17 48 26 W 1019,1 30 0,0
10.08.2018 16:00:00 30,0 14,9 31 17 48 26 W 1019,4 - 0,0
10.08.2018 15:00:00 30,8 16,8 21 12 37 20 W 1019,6 - 0,0
10.08.2018 14:00:00 31,3 15,3 6 3 15 8 SSW 1019,7 - 0,0
10.08.2018 13:00:00 28,4 17,9 9 5 16 9 SE 1019,9 - 0,0
10.08.2018 12:00:00 26,7 20,8 8 4 17 9 SE 1020,0 - 0,0
10.08.2018 11:00:00 26,0 21,0 4 2 13 7 SSW 1020,0 30 0,0
10.08.2018 10:00:00 23,7 20,4 3 2 16 8 S 1019,8 - 0,0
10.08.2018 09:00:00 22,1 20,6 9 5 27 15 NW 1019,5 - 0,0
10.08.2018 08:00:00 20,9 19,7 22 12 29 16 W 1019,5 25 0,0
10.08.2018 07:00:00 20,1 20,1 21 11 28 15 W 1019,3 - 0,0
10.08.2018 06:00:00 20,5 20,5 15 8 26 14 WNW 1019,2 - 0,0
10.08.2018 05:00:00 20,5 20,5 16 9 24 13 W 1018,6 - 0,0
10.08.2018 04:00:00 20,6 20,6 14 8 22 12 WNW 1019,0 - 0,0
10.08.2018 03:00:00 20,2 20,2 7 4 12 7 WNW 1019,1 - 0,0
10.08.2018 02:00:00 20,3 20,3 8 4 14 7 NW 1018,9 15 0,0
10.08.2018 01:00:00 20,6 20,6 9 5 18 10 WNW 1019,2 - 0,2
10.08.2018 00:00:00 20,6 20,6 12 7 22 12 WNW 1019,3 - 0,0
09.08.2018 23:00:00 20,3 20,3 8 4 30 16 NE 1019,5 - 0,0
09.08.2018 22:00:00 20,2 20,2 24 13 44 24 ENE 1018,8 - 0,6
09.08.2018 21:00:00 19,5 19,5 18 10 29 15 ENE 1018,1 - 7,3
09.08.2018 20:00:00 20,3 20,3 17 9 34 18 NE 1018,3 - 0,2
09.08.2018 19:00:00 20,6 20,6 21 12 30 16 NE 1017,5 - 3,2
09.08.2018 18:00:00 20,1 20,1 24 13 44 24 WNW 1017,8 - 7,5
09.08.2018 17:00:00 19,4 19,4 24 13 81 44 WNW 1017,4 - 4,5
09.08.2018 16:00:00 26,3 16,2 19 10 42 23 N 1016,6 - 0,0
09.08.2018 15:00:00 27,7 18,7 11 6 44 24 S 1016,3 - 0,0
09.08.2018 14:00:00 29,1 22,6 12 7 34 18 S 1015,9 15 0,2
09.08.2018 13:00:00 28,7 23,4 13 7 29 15 ESE 1016,1 - 0,0
09.08.2018 12:00:00 26,7 23,8 13 7 31 17 E 1015,9 - 0,2
09.08.2018 11:00:00 27,2 22,8 12 7 30 16 E 1015,6 20 0,0
09.08.2018 10:00:00 26,3 23,2 18 10 30 16 E 1015,3 - 0,0
09.08.2018 09:00:00 25,3 23,9 7 4 22 12 E 1015,6 - 0,0
09.08.2018 08:00:00 23,7 23,2 18 10 25 14 NE 1015,1 - 0,0
09.08.2018 07:00:00 23,8 23,5 11 6 21 11 E 1014,9 - 0,0
09.08.2018 06:00:00 23,3 22,8 9 5 23 12 NE 1014,5 - 0,0
09.08.2018 05:00:00 23,5 22,8 13 7 21 11 ENE 1014,3 15 0,0
09.08.2018 04:00:00 23,6 22,8 10 6 18 10 ENE 1014,5 - 0,0
09.08.2018 03:00:00 24,5 23,3 9 5 14 8 ENE 1014,7 - 0,0
09.08.2018 02:00:00 24,7 23,3 9 5 14 8 ENE 1014,8 - 0,0
09.08.2018 01:00:00 25,3 23,7 4 2 7 4 NE 1015,4 - 0,0
09.08.2018 00:00:00 25,8 23,8 3 2 4 2 ENE 1015,1 - 0,0
08.08.2018 23:00:00 25,7 23,7 3 2 7 4 WNW 1015,1 - 0,0

tt = Température de l'air
td = dewpoint
ff = Vitesse du vent
fx = gusts
dd = Direction du vent
ppp = reduced air pressure
vv = visibility
rr = Quantités de précipitations

stations d'obs. à proximité